EW6473 Weather Reports


time (UTC)temp
F
wind
direction
speed
knots
gust
knots
rain 1hr
in
rain 24hr
in
rain mn
in
humidity
%
barometer
mb
20211017154522 69 90 0.0 1.7 0.00 0.00 0.00 14 1016.6
20211017153021 66 97 0.0 0.0 0.00 0.00 0.00 15 1016.6
20211017151526 62 97 0.0 0.0 0.00 0.00 0.00 17 1016.7
20211017150021 59 97 0.0 0.0 0.00 0.00 0.00 19 1016.5
20211017144526 58 90 0.0 1.7 0.00 0.00 0.00 19 1016.5
20211017143021 59 97 0.0 0.0 0.00 0.00 0.00 18 1016.5
20211017141521 58 90 0.0 2.6 0.00 0.00 0.00 19 1016.5
20211017140026 58 90 0.0 3.5 0.00 0.00 0.00 19 1016.3
20211017134521 58 97 0.0 0.0 0.00 0.00 0.00 20 1016.2
20211017133021 58 97 0.0 0.0 0.00 0.00 0.00 20 1016.3
20211017131521 58 97 0.0 0.0 0.00 0.00 0.00 21 1016.4
20211017130026 57 90 0.0 2.6 0.00 0.00 0.00 21 1016.0
20211017124521 58 97 0.0 0.0 0.00 0.00 0.00 20 1016.0
20211017123023 57 97 0.0 0.0 0.00 0.00 0.00 21 1016.2
20211017121521 55 97 0.0 0.0 0.00 0.00 0.00 21 1016.4
20211017120026 55 90 0.9 3.5 0.00 0.00 0.00 22 1016.1
20211017114521 57 90 0.9 3.5 0.00 0.00 0.00 21 1016.2
20211017113020 58 90 0.9 2.6 0.00 0.00 0.00 20 1016.3
20211017111522 59 90 0.9 2.6 0.00 0.00 0.00 19 1016.3
20211017110020 58 90 0.0 1.7 0.00 0.00 0.00 20 1016.4
20211017104520 58 90 0.9 2.6 0.00 0.00 0.00 21 1016.3
20211017103021 59 90 0.0 2.6 0.00 0.00 0.00 19 1016.4
20211017101522 60 90 0.9 5.2 0.00 0.00 0.00 18 1016.5
20211017100021 62 90 0.0 1.7 0.00 0.00 0.00 18 1016.8
20211017094520 61 100 0.0 0.0 0.00 0.00 0.00 18 1017.0
20211017093020 62 90 0.0 2.6 0.00 0.00 0.00 18 1017.0
20211017091520 61 90 0.0 2.6 0.00 0.00 0.00 18 1017.0
20211017090025 61 90 0.0 2.6 0.00 0.00 0.00 18 1017.2
20211017084520 61 100 0.0 0.0 0.00 0.00 0.00 18 1017.3
20211017083017 62 100 0.0 0.0 0.00 0.00 0.00 18 1017.1
20211017081517 62 90 0.0 2.6 0.00 0.00 0.00 17 1017.1
20211017080020 63 90 0.9 5.2 0.00 0.00 0.00 17 1017.4
20211017074520 63 90 0.0 5.2 0.00 0.00 0.00 17 1017.5
20211017073020 64 90 0.9 4.3 0.00 0.00 0.00 16 1017.6
20211017071521 64 90 0.9 4.3 0.00 0.00 0.00 16 1017.5
20211017070024 64 90 0.9 4.3 0.00 0.00 0.00 16 1017.8
20211017064528 64 158 0.0 5.2 0.00 0.00 0.00 16 1017.8
20211017063021 64 90 0.9 2.6 0.00 0.00 0.00 16 1017.9
20211017061521 63 90 0.0 3.5 0.00 0.00 0.00 17 1017.7
20211017060021 64 90 0.0 2.6 0.00 0.00 0.00 16 1017.8
20211017054521 65 90 0.9 5.2 0.00 0.00 0.00 16 1017.8
20211017053021 65 113 0.0 5.2 0.00 0.00 0.00 16 1017.7
20211017051521 66 90 0.9 5.2 0.00 0.00 0.00 15 1017.6
20211017050021 66 90 0.9 5.2 0.00 0.00 0.00 15 1017.8
20211017044521 65 90 0.9 6.1 0.00 0.00 0.00 16 1017.5
20211017043021 65 135 0.0 2.6 0.00 0.00 0.00 16 1017.4
20211017041521 65 180 0.0 1.7 0.00 0.00 0.00 15 1017.2
20211017040021 65 180 0.0 1.7 0.00 0.00 0.00 15 1017.1
20211017034521 66 180 0.9 2.6 0.00 0.00 0.00 15 1016.6
20211017033021 65 180 0.0 2.6 0.00 0.00 0.00 15 1016.4
20211017031521 66 180 0.0 1.7 0.00 0.00 0.00 15 1015.9
20211017030020 67 203 0.0 4.3 0.00 0.00 0.00 15 1016.4
20211017024520 67 270 0.9 4.3 0.00 0.00 0.00 14 1016.1
20211017023021 68 270 0.0 2.6 0.00 0.00 0.00 14 1015.7
20211017021520 69 270 0.9 4.3 0.00 0.00 0.00 13 1015.6
20211017020020 70 135 0.0 2.6 0.00 0.00 0.00 12 1015.5
20211017014521 73 135 0.0 5.2 0.00 0.00 0.00 11 1015.3
20211017013021 75 243 0.0 0.0 0.00 0.00 0.00 11 1015.2
20211017011520 76 248 0.0 1.7 0.00 0.00 0.00 10 1015.2
20211017010020 78 248 0.0 2.6 0.00 0.00 0.00 9 1014.9
20211017004521 80 248 0.0 5.2 0.00 0.00 0.00 9 1015.0
20211017003021 81 248 0.0 5.2 0.00 0.00 0.00 8 1015.1
20211017001521 83 270 1.7 7.0 0.00 0.00 0.00 7 1015.5
20211017000020 84 225 0.9 8.7 0.00 0.00 0.00 7 1015.3
20211016234521 84 225 0.0 5.2 0.00 0.00 0.00 6 1015.3
20211016233021 85 248 0.9 6.1 0.00 0.00 0.00 6 1015.4
20211016231520 84 338 0.9 7.0 0.00 0.00 0.00 7 1015.3
20211016230022 85 315 0.0 2.6 0.00 0.00 0.00 7 1015.6
20211016224522 83 315 0.0 3.5 0.00 0.00 0.00 9 1015.9
20211016223022 82 338 1.7 7.0 0.00 0.00 0.00 8 1015.8
20211016221522 82 338 0.9 7.0 0.00 0.00 0.00 8 1015.7
20211016220021 84 293 0.9 5.2 0.00 0.00 0.00 8 1015.8
20211016214522 84 248 0.9 5.2 0.00 0.00 0.00 7 1015.7
20211016213022 84 0 0.9 4.3 0.00 0.00 0.00 8 1016.0
20211016211522 82 338 1.7 7.0 0.00 0.00 0.00 8 1016.1
20211016210022 82 338 1.7 7.0 0.00 0.00 0.00 8 1016.4
20211016204522 82 338 0.9 8.7 0.00 0.00 0.00 8 1016.6
20211016203021 81 338 0.9 6.1 0.00 0.00 0.00 8 1017.0
20211016201524 80 338 1.7 7.0 0.00 0.00 0.00 7 1017.1
20211016200022 80 338 1.7 10.4 0.00 0.00 0.00 8 1017.3
20211016194521 80 338 0.9 6.1 0.00 0.00 0.00 7 1017.5
20211016193023 80 293 0.9 5.2 0.00 0.00 0.00 8 1017.8
20211016191522 78 338 0.9 6.1 0.00 0.00 0.00 8 1018.1
20211016190027 78 338 0.9 6.1 0.00 0.00 0.00 8 1018.3
20211016184537 77 338 0.9 5.2 0.00 0.00 0.00 9 1018.5
20211016183021 77 225 0.9 6.1 0.00 0.00 0.00 9 1018.6
20211016181522 77 338 0.9 5.2 0.00 0.00 0.00 10 1018.7
20211016180022 76 270 0.0 4.3 0.00 0.00 0.00 10 1018.7
20211016174522 76 248 0.0 4.3 0.00 0.00 0.00 10 1018.8
20211016173021 75 203 0.0 4.3 0.00 0.00 0.00 11 1018.8
20211016171521 75 180 0.0 2.6 0.00 0.00 0.00 10 1019.0
20211016170022 75 90 0.0 2.6 0.00 0.00 0.00 10 1019.2
20211016164602 74 85 0.0 0.0 0.00 0.00 0.00 11 1019.2
20211016163024 73 85 0.0 0.0 0.00 0.00 0.00 11 1019.3
20211016161522 72 85 0.0 0.0 0.00 0.00 0.00 14 1019.4
20211016160042 70 90 0.0 0.9 0.00 0.00 0.00 11 1019.3